TimeEST,TemperatureF,Dew PointF,Humidity,Sea Level PressureIn,VisibilityMPH,Wind Direction,Wind SpeedMPH,Gust SpeedMPH,PrecipitationIn,Events,Conditions,WindDirDegrees,DateUTC
12:53 AM,21.9,-2.0,35,30.01,10.0,West,21.9,39.1,N/A,,Clear,280,2013-01-22 05:53:00
1:53 AM,19.9,-2.9,37,30.03,10.0,WNW,24.2,38.0,N/A,,Clear,290,2013-01-22 06:53:00
2:53 AM,19.0,-5.1,34,30.06,10.0,WNW,18.4,34.5,N/A,,Clear,290,2013-01-22 07:53:00
3:53 AM,18.0,-2.9,40,30.07,10.0,West,23.0,28.8,N/A,,Clear,280,2013-01-22 08:53:00
4:53 AM,17.1,-2.9,41,30.09,10.0,West,19.6,27.6,N/A,,Clear,280,2013-01-22 09:53:00
5:53 AM,16.0,-2.9,43,30.12,10.0,WNW,10.4,25.3,N/A,,Scattered Clouds,300,2013-01-22 10:53:00
6:53 AM,15.1,-5.1,41,30.17,10.0,West,18.4,28.8,N/A,,Scattered Clouds,280,2013-01-22 11:53:00
7:53 AM,14.0,-8.0,37,30.19,10.0,West,21.9,25.3,N/A,,Clear,280,2013-01-22 12:53:00
8:53 AM,15.1,-6.0,39,30.22,10.0,WNW,16.1,23.0,N/A,,Partly Cloudy,300,2013-01-22 13:53:00
9:53 AM,16.0,-6.0,38,30.24,10.0,West,9.2,18.4,N/A,,Mostly Cloudy,260,2013-01-22 14:53:00
10:53 AM,18.0,-7.1,33,30.24,10.0,NW,11.5,21.9,N/A,,Mostly Cloudy,310,2013-01-22 15:53:00
11:53 AM,19.0,-7.1,31,30.22,10.0,West,9.2,23.0,N/A,,Overcast,260,2013-01-22 16:53:00
12:53 PM,19.9,-7.1,30,30.20,10.0,West,13.8,20.7,N/A,,Overcast,260,2013-01-22 17:53:00
1:53 PM,21.0,-6.0,30,30.19,10.0,West,24.2,28.8,N/A,,Overcast,260,2013-01-22 18:53:00
2:53 PM,21.0,-7.1,29,30.20,10.0,West,18.4,26.5,N/A,,Mostly Cloudy,260,2013-01-22 19:53:00
3:53 PM,19.9,-6.0,32,30.21,10.0,WNW,9.2,20.7,N/A,,Scattered Clouds,300,2013-01-22 20:53:00
4:53 PM,19.0,-5.1,34,30.23,10.0,West,11.5,17.3,N/A,,Clear,280,2013-01-22 21:53:00
5:53 PM,17.1,-5.1,37,30.26,10.0,West,6.9,-,N/A,,Partly Cloudy,280,2013-01-22 22:53:00
6:53 PM,17.1,-4.0,39,30.28,10.0,West,8.1,-,N/A,,Partly Cloudy,280,2013-01-22 23:53:00
7:53 PM,17.1,-4.0,39,30.28,10.0,West,10.4,20.7,N/A,,Clear,280,2013-01-23 00:53:00
8:53 PM,16.0,-2.9,43,30.29,10.0,WNW,10.4,-,N/A,,Clear,300,2013-01-23 01:53:00
9:53 PM,15.1,-2.9,45,30.30,10.0,WNW,6.9,-,N/A,,Clear,290,2013-01-23 02:53:00
10:53 PM,15.1,-2.0,47,30.30,10.0,NW,5.8,-,N/A,,Mostly Cloudy,320,2013-01-23 03:53:00
11:53 PM,14.0,-0.0,54,30.30,10.0,NW,5.8,-,N/A,,Mostly Cloudy,320,2013-01-23 04:53:00